W8AN Weather Reports


time (UTC)temp
C
wind
direction
speed
KPH
gust
KPH
rain 1hr
cm
rain 24hr
cm
rain mn
cm
humidity
%
barometer
mb
20260503233058 11 238 12.9 14.5 0.00 0.00 0.00 62 4267.0
20260503232556 11 226 11.3 14.5 0.00 0.00 0.00 63 4266.8
20260503232053 11 192 14.5 17.7 0.00 0.00 0.00 62 4266.9
20260503231551 11 230 19.3 24.1 0.00 0.00 0.00 62 4267.0
20260503231047 12 212 17.7 24.1 0.00 0.00 0.00 62 4267.1
20260503230544 12 239 25.7 32.2 0.00 0.00 0.00 60 4266.8
20260503230042 12 224 17.7 20.9 0.00 0.00 0.00 62 4266.9
20260503225538 12 243 17.7 22.5 0.00 0.00 0.00 61 4267.1
20260503225033 12 248 25.7 33.8 0.00 0.00 0.00 59 4267.0
20260503224531 13 251 24.1 29.0 0.00 0.00 0.00 58 4266.7
20260503224029 13 228 24.1 29.0 0.00 0.00 0.00 58 4266.7
20260503223526 13 232 24.1 25.7 0.00 0.00 0.00 55 4266.7
20260503223022 14 243 22.5 29.0 0.00 0.00 0.00 54 4266.5
20260503222520 14 250 35.4 41.8 0.00 0.00 0.00 52 4266.3
20260503222018 15 220 30.6 40.2 0.00 0.00 0.00 51 4266.5
20260503221516 15 234 32.2 37.0 0.00 0.00 0.00 47 4266.3
20260503221013 15 231 24.1 27.4 0.00 0.00 0.00 39 4266.3
20260503220509 16 233 16.1 20.9 0.00 0.00 0.00 38 4266.3
20260503220006 16 219 22.5 24.1 0.00 0.00 0.00 38 4266.3
20260503215503 15 205 24.1 38.6 0.00 0.00 0.00 38 4266.0
20260503215000 15 226 27.4 35.4 0.00 0.00 0.00 38 4266.2
20260503214458 15 214 16.1 17.7 0.00 0.00 0.00 37 4266.3
20260503213955 16 205 19.3 24.1 0.00 0.00 0.00 38 4266.3
20260503213453 16 243 24.1 27.4 0.00 0.00 0.00 36 4266.2
20260503212949 16 234 27.4 27.4 0.00 0.00 0.00 37 4266.5
20260503212447 16 206 20.9 25.7 0.00 0.00 0.00 37 4266.1
20260503211944 16 235 25.7 32.2 0.00 0.00 0.00 36 4266.4
20260503211441 16 222 22.5 29.0 0.00 0.00 0.00 36 4266.1
20260503210936 16 228 29.0 40.2 0.00 0.00 0.00 36 4266.4
20260503210433 16 221 25.7 32.2 0.00 0.00 0.00 35 4266.5
20260503205928 16 226 20.9 32.2 0.00 0.00 0.00 37 4266.5
20260503205426 16 204 19.3 25.7 0.00 0.00 0.00 39 4266.4
20260503204921 16 229 27.4 38.6 0.00 0.00 0.00 35 4266.6
20260503204419 16 248 22.5 32.2 0.00 0.00 0.00 37 4266.8
20260503203916 16 264 27.4 32.2 0.00 0.00 0.00 36 4266.8
20260503203413 16 239 27.4 33.8 0.00 0.00 0.00 35 4267.0
20260503202910 16 224 35.4 43.5 0.00 0.00 0.00 33 4266.9
20260503202409 16 226 20.9 25.7 0.00 0.00 0.00 36 4266.7
20260503201907 16 235 17.7 22.5 0.00 0.00 0.00 38 4266.7
20260503201403 16 220 30.6 33.8 0.00 0.00 0.00 36 4266.8
20260503200901 16 218 29.0 33.8 0.00 0.00 0.00 35 4266.8
20260503200356 16 226 27.4 35.4 0.00 0.00 0.00 34 4267.0
20260503195854 17 234 20.9 25.7 0.00 0.00 0.00 37 4266.9
20260503195350 17 235 24.1 29.0 0.00 0.00 0.00 34 4267.1
20260503194848 16 260 16.1 20.9 0.00 0.00 0.00 37 4267.1
20260503194343 16 238 12.9 16.1 0.00 0.00 0.00 36 4267.0
20260503193840 16 220 24.1 32.2 0.00 0.00 0.00 34 4267.4
20260503193336 16 219 24.1 29.0 0.00 0.00 0.00 34 4267.3
20260503192832 16 217 22.5 27.4 0.00 0.00 0.00 35 4267.3
20260503192327 16 225 27.4 37.0 0.00 0.00 0.00 34 4267.3
20260503191824 16 235 20.9 24.1 0.00 0.00 0.00 34 4267.5
20260503191321 16 245 29.0 32.2 0.00 0.00 0.00 36 4267.5
20260503190818 16 247 38.6 48.3 0.00 0.00 0.00 36 4267.7
20260503190315 16 219 30.6 35.4 0.00 0.00 0.00 36 4267.8
20260503185812 16 222 25.7 32.2 0.00 0.00 0.00 35 4268.0
20260503185308 16 225 19.3 24.1 0.00 0.00 0.00 37 4267.9
20260503184808 16 238 20.9 27.4 0.00 0.00 0.00 35 4268.0
20260503184304 16 234 24.1 29.0 0.00 0.00 0.00 36 4267.9
20260503183800 16 255 25.7 32.2 0.00 0.00 0.00 35 4268.0
20260503183258 16 221 29.0 37.0 0.00 0.00 0.00 34 4268.0
20260503182755 16 214 20.9 24.1 0.00 0.00 0.00 37 4268.3
20260503182254 15 214 24.1 27.4 0.00 0.00 0.00 35 4268.2
20260503181750 15 227 25.7 37.0 0.00 0.00 0.00 36 4268.3
20260503181248 16 224 30.6 37.0 0.00 0.00 0.00 36 4268.6
20260503180744 16 258 20.9 32.2 0.00 0.00 0.00 33 4268.3
20260503180242 16 223 16.1 17.7 0.00 0.00 0.00 35 4268.5
20260503175738 16 286 14.5 20.9 0.00 0.00 0.00 36 4268.4
20260503175237 16 215 27.4 35.4 0.00 0.00 0.00 36 4268.6
20260503174732 15 223 24.1 33.8 0.00 0.00 0.00 34 4268.6
20260503174231 16 233 22.5 24.1 0.00 0.00 0.00 38 4268.7
20260503173730 16 235 20.9 22.5 0.00 0.00 0.00 39 4268.9
20260503173227 15 235 24.1 33.8 0.00 0.00 0.00 35 4268.7
20260503172724 15 234 24.1 32.2 0.00 0.00 0.00 37 4269.0
20260503172221 15 256 20.9 24.1 0.00 0.00 0.00 38 4268.8
20260503171717 15 285 17.7 24.1 0.00 0.00 0.00 37 4268.9
20260503171215 15 235 19.3 24.1 0.00 0.00 0.00 38 4269.0
20260503170712 15 256 41.8 49.9 0.00 0.00 0.00 37 4269.2
20260503170208 15 219 33.8 41.8 0.00 0.00 0.00 39 4269.0
20260503160130 13 228 17.7 22.5 0.00 0.00 0.00 49 4269.9
20260503150600 12 225 17.7 22.5 0.00 0.00 0.00 51 4270.4
20260503130943 8 218 24.1 27.4 0.00 0.00 0.00 59 4270.9
20260503130441 8 246 19.3 24.1 0.00 0.00 0.00 59 4270.9
20260503110338 2 229 0.0 0.0 0.00 0.00 0.00 71 4270.8
20260503090218 2 227 6.4 8.0 0.00 0.00 0.00 73 4271.0
20260503081145 2 209 8.0 8.0 0.00 0.00 0.00 74 4271.3
20260503080641 2 209 9.7 11.3 0.00 0.00 0.00 74 4271.4
20260503080138 2 209 8.0 11.3 0.00 0.00 0.00 74 4271.4
20260503072615 2 221 4.8 4.8 0.00 0.00 0.00 74 4271.2
20260503072112 2 215 0.0 0.0 0.00 0.00 0.00 74 4271.4
20260503071608 2 220 0.0 0.0 0.00 0.00 0.00 75 4271.5
20260503071105 2 228 0.0 0.0 0.00 0.00 0.00 75 4271.5
20260503070602 2 226 0.0 0.0 0.00 0.00 0.00 75 4271.4
20260503055021 2 242 0.0 0.0 0.00 0.00 0.00 73 4271.7
20260503054517 2 241 0.0 0.0 0.00 0.00 0.00 73 4271.7
20260503054014 2 235 0.0 0.0 0.00 0.00 0.00 73 4271.7
20260503053512 2 252 0.0 0.0 0.00 0.00 0.00 73 4271.9
20260503053010 3 250 0.0 0.0 0.00 0.00 0.00 73 4271.7
20260503052506 3 247 0.0 0.0 0.00 0.00 0.00 72 4271.8
20260503052003 3 244 0.0 0.0 0.00 0.00 0.00 72 4271.6
20260503051458 3 241 0.0 0.0 0.00 0.00 0.00 71 4271.9
20260503050956 3 225 0.0 0.0 0.00 0.00 0.00 70 4271.8
20260503050451 3 228 0.0 0.0 0.00 0.00 0.00 69 4272.0
20260503045949 3 223 0.0 0.0 0.00 0.00 0.00 68 4271.8
20260503045446 3 220 0.0 0.0 0.00 0.00 0.00 68 4272.0
20260503044943 4 218 0.0 0.0 0.00 0.00 0.00 68 4271.9
20260503044440 3 222 0.0 0.0 0.00 0.00 0.00 71 4271.8
20260503043937 4 233 0.0 0.0 0.00 0.00 0.00 68 4271.9
20260503043433 4 243 0.0 0.0 0.00 0.00 0.00 70 4271.8
20260503042930 4 240 0.0 0.0 0.00 0.00 0.00 70 4271.7
20260503042427 3 242 0.0 0.0 0.00 0.00 0.00 72 4271.6
20260503041924 4 233 0.0 0.0 0.00 0.00 0.00 68 4271.8
20260503041420 5 220 0.0 0.0 0.00 0.00 0.00 66 4271.5
20260503040918 5 222 0.0 0.0 0.00 0.00 0.00 66 4271.5
20260503040415 5 228 0.0 0.0 0.00 0.00 0.00 66 4271.8
20260503035913 5 231 0.0 0.0 0.00 0.00 0.00 66 4271.8
20260503035409 5 237 0.0 0.0 0.00 0.00 0.00 67 4271.8
20260503034906 4 261 0.0 0.0 0.00 0.00 0.00 69 4271.9
20260503034404 5 252 0.0 0.0 0.00 0.00 0.00 68 4271.9
20260503033901 5 241 0.0 0.0 0.00 0.00 0.00 66 4271.7
20260503033358 5 245 0.0 0.0 0.00 0.00 0.00 66 4271.8
20260503032856 5 246 0.0 0.0 0.00 0.00 0.00 65 4271.7
20260503032354 5 261 0.0 0.0 0.00 0.00 0.00 66 4272.0
20260503031852 5 261 0.0 0.0 0.00 0.00 0.00 65 4272.0
20260503031349 5 257 0.0 0.0 0.00 0.00 0.00 64 4271.7
20260503030845 5 261 0.0 0.0 0.00 0.00 0.00 65 4271.6
20260503030342 5 255 0.0 0.0 0.00 0.00 0.00 65 4271.9
20260503025838 5 255 0.0 0.0 0.00 0.00 0.00 65 4271.7
20260503025336 6 263 0.0 0.0 0.00 0.00 0.00 64 4271.7
20260503024833 6 262 0.0 0.0 0.00 0.00 0.00 65 4271.9
20260503024330 6 252 0.0 0.0 0.00 0.00 0.00 62 4271.8
20260503023826 6 273 0.0 0.0 0.00 0.00 0.00 65 4272.0
20260503023324 6 276 0.0 0.0 0.00 0.00 0.00 65 4271.9
20260503022820 6 272 0.0 0.0 0.00 0.00 0.00 63 4272.0
20260503022314 6 272 0.0 0.0 0.00 0.00 0.00 65 4271.8
20260503021811 6 277 0.0 0.0 0.00 0.00 0.00 66 4272.0
20260503021308 6 274 0.0 0.0 0.00 0.00 0.00 64 4271.6
20260503020805 6 274 0.0 0.0 0.00 0.00 0.00 65 4272.0
20260503020303 6 272 0.0 0.0 0.00 0.00 0.00 69 4272.0
20260503015759 6 286 0.0 0.0 0.00 0.00 0.00 70 4271.7
20260503015256 6 286 0.0 0.0 0.00 0.00 0.00 68 4271.7
20260503014751 6 286 0.0 0.0 0.00 0.00 0.00 69 4271.7
20260503014250 6 285 0.0 0.0 0.00 0.00 0.00 69 4271.6
20260503013747 6 282 0.0 0.0 0.00 0.00 0.00 68 4271.8
20260503013244 6 286 0.0 0.0 0.00 0.00 0.00 60 4271.8
20260503012741 6 286 0.0 0.0 0.00 0.00 0.00 61 4271.5
20260503012239 7 285 0.0 0.0 0.00 0.00 0.00 60 4271.6
20260503011735 7 284 0.0 0.0 0.00 0.00 0.00 54 4271.7
20260503011232 7 282 0.0 0.0 0.00 0.00 0.00 53 4271.8
20260503010728 7 280 0.0 0.0 0.00 0.00 0.00 53 4271.8
20260503010225 7 278 0.0 0.0 0.00 0.00 0.00 54 4271.4
20260503005723 7 274 0.0 0.0 0.00 0.00 0.00 56 4271.6
20260503005220 7 286 0.0 0.0 0.00 0.00 0.00 56 4271.6
20260503004716 7 287 0.0 0.0 0.00 0.00 0.00 54 4271.5
20260503004215 7 287 0.0 0.0 0.00 0.00 0.00 55 4271.3
20260503003711 7 287 0.0 0.0 0.00 0.00 0.00 55 4271.6
20260503003208 7 287 0.0 0.0 0.00 0.00 0.00 56 4271.7
20260503002705 7 284 0.0 0.0 0.00 0.00 0.00 59 4271.6
20260503002202 7 267 0.0 0.0 0.00 0.00 0.00 57 4271.5
20260503001657 8 259 0.0 0.0 0.00 0.00 0.00 51 4271.7
20260503001154 8 283 0.0 0.0 0.00 0.00 0.00 52 4271.5
20260503000652 8 257 0.0 0.0 0.00 0.00 0.00 51 4271.3
20260503000149 8 251 0.0 0.0 0.00 0.00 0.00 50 4271.5
20260502235646 8 278 3.2 4.8 0.00 0.00 0.00 52 4271.5
20260502235144 8 279 0.0 0.0 0.00 0.00 0.00 52 4271.4
20260502234640 8 309 0.0 0.0 0.00 0.00 0.00 49 4271.4
20260502234137 8 273 0.0 0.0 0.00 0.00 0.00 48 4271.6
20260502233633 8 291 0.0 1.6 0.00 0.00 0.00 47 4271.4